Regional Weather Roundup
Issued by NWS Grand Forks, ND

Home | Current Version | Previous Version | Text Only | Print | Product List | Glossary On
Versions: 1 2 3 4 5 6 7 8 9 10 11 12 13 14 15 16 17 18 19 20 21 22 23 24 25 26 27 28 29 30 31 32 33 34 35 36 37 38 39 40 41 42 43 44 45 46 47 48 49 50
000
ASUS43 KFGF 211610
RWRFGF
PRAIRIE TO PINES  WEATHER ROUNDUP
NATIONAL WEATHER SERVICE EASTERN NORTH DAKOTA/GRAND FORKS ND
1100 AM CDT MON APR 21 2014

 **SATELLITE DATA USED TO AUGMENT SKY COVER AT AUTOMATED STATIONS**
 *****  WEATHER ACROSS EASTERN NORTH DAKOTA  *****

CITY           SKY/WX    TMP DP  RH WIND       PRES   REMARKS
GRAND FORKS    MOSUNNY   45  31  58 N29G37    30.10R
GRAND FRKS AFB MOSUNNY   45  31  58 N23G33    30.11R
DEVILS LAKE    MOSUNNY   43  28  56 NW15      30.16S
FARGO          CLOUDY    46  33  60 N22       30.12R
WAHPETON ARPT  CLOUDY    45  32  61 N17G26    30.12R
$$

 ***** WEATHER ACROSS CENTRAL AND WESTERN NORTH DAKOTA  *****

CITY           SKY/WX    TMP DP  RH WIND       PRES   REMARKS
BISMARCK       CLOUDY    45  36  70 N10       30.23R
MINOT          MOSUNNY   43  33  68 NW9       30.20F
JAMESTOWN      CLOUDY    44  34  67 NW20      30.16R
MINOT AFB      SUNNY     42  33  71 W7        30.20S
GARRISON         N/A     42  34  73 NW9       30.21S
WILLISTON      PTSUNNY   44  34  67 NW3       30.23S
DICKINSON      SUNNY     54  33  45 NW10      30.20S
HETTINGER      SUNNY     57  32  38 NW12      30.22S
$$

 *****  OTHER AIRPORT OBSERVATIONS IN OUR AREA  *****

CITY           SKY/WX    TMP DP  RH WIND       PRES   REMARKS
WALHALLA         N/A     41  36  81 NW21      30.13S
GRAFTON AIRPOR FAIR      43  32  65 N22G30    30.11S
VALLEY CITY AR PTSUNNY   43  34  70 NW21G26   30.15R
CANDO          FAIR      46  28  49 NW16G22   30.17R
CAVALIER APRT  FAIR      41  32  70 N22G29    30.13R
GWINNER        CLOUDY    48  36  61 N18G26    30.15R
SHEYENNE NWR     N/A     47  35  62 N14       29.95
ROLLA          FAIR      41  32  70 NW17      30.17R
 ***** THE ABOVE OBSERVATIONS ARE NON NWS ARE NOT QUALITY
       CONTROLLED AND MAY MIS-REPORT RAIN FOR SNOW...
$$

  *****  WEATHER ACROSS NORTHERN MINNESOTA  *****

CITY           SKY/WX    TMP DP  RH WIND       PRES   REMARKS
FLAG ISLAND    CLOUDY    36  30  80 NW17G26   29.98R
WARROAD        CLOUDY    39  34  81 NW15G24   30.02R
ROSEAU         PTSUNNY   39  34  81 NW17      30.04R
HALLOCK        CLOUDY    37  32  81 N18       30.11R
THF RVR FALLS  CLOUDY    39  30  70 NW24      30.08R
BAUDETTE       CLOUDY    38  33  82 NW18G26   29.98R
WASKISH        CLOUDY    39  34  81 W14       30.00R
CROOKSTON      CLOUDY    43  34  70 N28G35    30.10R
$$
  *****  WEATHER ACROSS CENTRAL AND WEST MINNESOTA  *****

CITY           SKY/WX    TMP DP  RH WIND       PRES   REMARKS
FOSSTON        PTSUNNY   41  30  65 NW20G28   30.07R
BEMIDJI        CLOUDY    40  32  73 NW18      30.02R
PARK RAPIDS    CLOUDY    42  34  73 NW18      30.03R
ELBOW LAKE     CLOUDY    46  37  70 NW21G30   30.06R
WADENA         CLOUDY    45  36  70 NW18      30.04R
DETROIT LAKES  CLOUDY    41  34  75 NW17G23   30.09R
MOORHEAD       CLOUDY    45  37  76 N20       30.13R
FERGUS FALLS   CLOUDY    43  32  65 N20G30    30.07R
MORRIS MN      SUNNY     54  39  58 N26G33    30.05R
STAPLES        SUNNY     52  37  58 W22       30.00R
$$
  *****  WEATHER ELSEWHERE ACROSS MINNESOTA  *****

CITY           SKY/WX    TMP DP  RH WIND       PRES   REMARKS
DULUTH         MOSUNNY   59  35  40 NW17G29   29.84S
INTRNTL FALLS  CLOUDY    37  31  78 NW17      29.93R
ELY            SUNNY     54  34  47 W16G29    29.84R
CLOQUET        SUNNY     61  28  29 W18G29    29.86R
WHEATON        MOSUNNY   54  43  66 NW22G29   30.11R
BRAINERD       SUNNY     61  36  39 W21G30    29.96R
HIBBING        PTSUNNY   54  37  52 NW15G24   29.89R
ALEXANDRIA     SUNNY     52  40  63 NW25      30.02R
SAINT CLOUD    SUNNY     64  35  34 W18       29.95R
MINNEAPOLIS    MOSUNNY   62  46  55 NW9       29.94R
$$

  *****  WEATHER ACROSS SOUTH DAKOTA  *****

CITY           SKY/WX    TMP DP  RH WIND       PRES   REMARKS
SIOUX FALLS    MOSUNNY   65  31  28 N23G32    30.07R
BROOKINGS      NOT AVBL
WATERTOWN      SUNNY     56  37  49 NW24      30.09R
HURON          SUNNY     61  32  33 N22G30    30.13R
SISSETON         N/A     53  39  59 N23G33    30.09R
ABERDEEN       SUNNY     53  38  56 NW20      30.15R
MITCHELL       SUNNY     64  33  31 N21       30.14R
PIERRE         SUNNY     60  32  34 N13       30.19R
MOBRIDGE       SUNNY     54  35  48 N14       30.18R
RAPID CITY     SUNNY     60  23  24 CALM      30.23S
$$

  *****  SOME WEATHER IN NEARBY STATES *****

CITY           SKY/WX    TMP DP  RH WIND       PRES   REMARKS
GLASGOW MT     SUNNY     50  29  44 SE5       30.19S
GREAT FALLS MT MOSUNNY   54  25  32 S7        30.17F
CHEYENNE WY    SUNNY     51  24  34 S10       30.30F
SCOTTSBLUFF NE SUNNY     57  25  29 MISG      30.28S
OMAHA NE       PTSUNNY   66  53  63 N21G32    29.99R
DES MOINES IA  CLOUDY    66  59  78 W13       29.96R
DAVENPORT IA   CLOUDY    63  58  83 W10       29.95S
CHICAGO IL     CLOUDY    69  45  41 S10       29.91F
EAU CLAIRE WI  CLOUDY    68  52  56 W12G22    29.88F
LA CROSSE WI   CLOUDY    60  55  83 SW8       29.90R
$$

  *****  SOME NATIONAL WEATHER *****

CITY           SKY/WX    TMP DP  RH WIND       PRES   REMARKS
LA GUARDIA NY  MOSUNNY   56  26  31 VRB3      30.14F
RALEIGH NC     MOSUNNY   62  35  36 NE7       30.13F
ATLANTA GA     PTSUNNY   66  41  40 S5        30.17F
NEW ORLEANS LA MOSUNNY   72  59  63 SE7       30.13F
OKLAHOMA CITY  CLOUDY    64  59  82 N14       30.02R
ALBUQUERQUE NM MOSUNNY   64  35  34 NW3       30.25R
SALT LAKE CITY MOSUNNY   57  26  30 E5        30.20S
LOS ANGELES CA CLOUDY    61  57  88 VRB5      30.05F FOG
BOISE ID       SUNNY     56  29  35 SE12      30.12S
SEATTLE WA     PTSUNNY   50  41  71 SE8       30.03F
$$

*** WEATHER ACROSS MANITOBA...SASKATCHEWAN AND ONTARIO ***
                ***ONTARIO***

CITY           SKY/WX    TMP DP  RH WIND       PRES   REMARKS
GERALDTON      CLOUDY    45  32  61 E5        29.83F
THUNDER BAY    PTSUNNY   37  34  87 E13       29.81F
SIOUX LOOKOUT  DRIZZLE   34  32  93 W13G21    29.78R FOG     WCI  25
TORONTO        PTSUNNY   63  37  39 SE7       29.96F
BIG TROUT LK   CLOUDY    30  27  86 N7        29.94R WCI  23
PICKLE LAKE    CLOUDY    32  30  93 NE13G23   29.79F WCI  22
DRYDEN         LGT RAIN  36  32  87 W15G23    29.84R
KENORA         CLOUDY    36  30  80 NW15G22   29.94R
$$
                *** MANITOBA***

CITY           SKY/WX    TMP DP  RH WIND       PRES   REMARKS
BRANDON        MOSUNNY   43  36  75 NW17G26   30.17R
DAUPHIN        CLOUDY    37  32  81 W10       30.13S
ISLAND LAKE    CLOUDY    36  34  93 N10       30.03R
PILOT MOUND      N/A     43  32  65 NW15G24     N/A
THE PAS        PTSUNNY   39  28  65 S6        30.08S
THOMPSON       MOSUNNY   37  25  60 N6        30.04S
WINNIPEG       PTSUNNY   41  34  75 N17G24    30.12R
LYNN LAKE      SUNNY     43  18  36 CALM      30.03R
CHURCHILL      MOSUNNY   16  14  93 W6        30.09S WCI   7
GILLAM         CLOUDY    30  27  86 CALM      30.07S
$$
                ***SASKATCHEWAN***

CITY           SKY/WX    TMP DP  RH WIND       PRES   REMARKS
ESTEVAN        CLOUDY    43  36  75 W7        30.22R
KINDERSLEY     MOSUNNY   50  37  62 S13       30.12F
LLOYDMINSTER   MOSUNNY   50  39  66 S10       30.06F
PRINCE ALBERT  MOSUNNY   45  37  76 SW9       30.11S
REGINA         CLOUDY    37  34  87 SW7       30.21R
YORKTON        CLOUDY    36  34  93 SW9       30.16R
N. BATTLEFORD  SUNNY     45  37  76 S3        30.13F
LA RONGE       MOSUNNY   43  34  70 SE3       30.08S
SASKATOON      FOG       36  36 100 SW7       30.16F VSB 1/2
SWIFT CURRENT  SUNNY     52  30  43 SW8       30.14F
$$
NOTE: THESE ARE AUTOMATED STATIONS WITH LIMITED QUALITY CONTROL
      "FAIR" INDICATES FEW OR NO CLOUDS BELOW 12,000 FEET WITH NO
      SIGNIFICANT WEATHER AND/OR OBSTRUCTIONS TO VISIBILITY.
      SKY/WX - SKY CONDITION AND SIGNIFICANT WEATHER.
      TMP - AIR TEMPERATURE.    DP   - DEWPOINT TEMPERATURE.
      RH  - RELATIVE HUMIDITY.  PRES - PRESSURE.
      HX  - HEAT INDEX.         WCI  - WIND CHILL INDEX.
$



USA.gov is the U.S. government's official web portal to all federal, state and local government web resources and services.